K0HYD Weather Reports


Display with metric or nautical units.
time (UTC)temp
F
wind
direction
speed
MPH
gust
MPH
rain 1hr
in
rain 24hr
in
rain mn
in
humidity
%
barometer
mb
20260509203253 88 129 0.0 5.0 0.00 0.00 0.00 21 1007.7
20260509201752 88 221 0.0 2.0 0.00 0.00 0.00 21 1007.8
20260509200251 88 281 0.0 3.0 0.00 0.00 0.00 20 1008.0
20260509194750 87 134 0.0 1.0 0.00 0.00 0.00 23 1008.2
20260509191748 87 243 0.0 0.0 0.00 0.00 0.00 23 1008.8
20260509190247 87 40 0.0 1.0 0.00 0.00 0.00 25 1008.7
20260509184746 87 250 0.0 1.0 0.00 0.00 0.00 25 1008.9
20260509183246 86 250 0.0 1.0 0.00 0.00 0.00 25 1009.3
20260509181745 85 236 0.0 1.0 0.00 0.00 0.00 26 1009.5
20260509180243 86 210 0.0 1.0 0.00 0.00 0.00 23 1009.7
20260509174742 86 207 0.0 1.0 0.00 0.00 0.00 24 1009.9
20260509173242 86 276 0.0 1.0 0.00 0.00 0.00 26 1010.0
20260509171741 85 253 0.0 0.0 0.00 0.00 0.00 26 1010.5
20260509170240 84 263 0.0 1.0 0.00 0.00 0.00 26 1010.6
20260509164739 83 224 0.0 2.0 0.00 0.00 0.00 27 1010.8
20260509163238 82 263 0.0 1.0 0.00 0.00 0.00 28 1010.7
20260509161737 82 159 0.0 1.0 0.00 0.00 0.00 32 1010.6
20260509160236 81 245 0.0 1.0 0.00 0.00 0.00 34 1010.8
20260509154735 80 256 0.0 5.0 0.00 0.00 0.00 36 1010.6
20260509153234 78 215 0.0 0.0 0.00 0.00 0.00 39 1010.8
20260509151733 76 264 0.0 0.0 0.00 0.00 0.00 47 1010.8
20260509150232 74 231 0.0 0.0 0.00 0.00 0.00 49 1010.8
20260509144731 73 214 0.0 1.0 0.00 0.00 0.00 50 1010.5
20260509143230 72 232 0.0 1.0 0.00 0.00 0.00 52 1010.5
20260509141729 70 248 0.0 0.0 0.00 0.00 0.00 55 1010.4
20260509140228 68 264 0.0 5.0 0.00 0.00 0.00 60 1010.6
20260509133226 63 232 0.0 0.0 0.00 0.00 0.00 71 1010.4
20260509131725 60 225 0.0 0.0 0.00 0.00 0.00 79 1010.5
20260509130224 57 255 0.0 0.0 0.00 0.00 0.00 82 1010.8
20260509124723 54 237 0.0 0.0 0.00 0.00 0.00 87 1010.6
20260509123222 52 229 0.0 0.0 0.00 0.00 0.00 89 1010.5
20260509121721 50 233 0.0 0.0 0.00 0.00 0.00 87 1010.3
20260509120220 49 224 0.0 0.0 0.00 0.00 0.00 87 1010.0
20260509114720 48 224 0.0 0.0 0.00 0.00 0.00 86 1010.0
20260509113219 48 221 0.0 0.0 0.00 0.00 0.00 87 1009.9
20260509111718 48 221 0.0 0.0 0.00 0.00 0.00 87 1009.7
20260509110217 48 221 0.0 0.0 0.00 0.00 0.00 87 1009.6
20260509104716 48 221 0.0 0.0 0.00 0.00 0.00 85 1009.6
20260509103215 48 211 0.0 0.0 0.00 0.00 0.00 86 1009.8
20260509101714 48 211 0.0 0.0 0.00 0.00 0.00 82 1009.8
20260509100213 50 211 0.0 0.0 0.00 0.00 0.00 83 1009.9
20260509093211 50 239 0.0 0.0 0.00 0.00 0.00 82 1009.9
20260509091710 50 253 0.0 0.0 0.00 0.00 0.00 82 1009.9
20260509090209 50 218 0.0 0.0 0.00 0.00 0.00 80 1010.0
20260509084708 51 246 0.0 0.0 0.00 0.00 0.00 78 1010.0
20260509083207 52 252 0.0 0.0 0.00 0.00 0.00 78 1010.0
20260509081706 51 250 0.0 0.0 0.00 0.00 0.00 79 1010.0
20260509080205 49 222 0.0 0.0 0.00 0.00 0.00 82 1010.1
20260509074704 49 214 0.0 0.0 0.00 0.00 0.00 84 1009.9
20260509073203 49 231 0.0 0.0 0.00 0.00 0.00 80 1010.0
20260509071702 50 231 0.0 0.0 0.00 0.00 0.00 82 1010.1
20260509064700 49 228 0.0 0.0 0.00 0.00 0.00 84 1009.9
20260509063200 48 229 0.0 0.0 0.00 0.00 0.00 88 1010.0
20260509060157 49 228 0.0 0.0 0.00 0.00 0.00 82 1009.9
20260509054657 50 228 0.0 0.0 0.00 0.00 0.00 82 1010.0
20260509053155 50 228 0.0 0.0 0.00 0.00 0.00 82 1009.8
20260509050153 52 228 0.0 0.0 0.00 0.00 0.00 80 1009.9
20260509044653 52 228 0.0 0.0 0.00 0.00 0.00 81 1010.0
20260509041651 51 13 0.0 0.0 0.00 0.00 0.00 78 1009.9
20260509040150 52 13 0.0 0.0 0.00 0.00 0.00 77 1009.8
20260509034649 52 13 0.0 0.0 0.00 0.00 0.00 75 1009.9
20260509033148 53 13 0.0 0.0 0.00 0.00 0.00 73 1009.7
20260509031647 54 13 0.0 0.0 0.00 0.00 0.00 70 1009.5
20260509030146 56 13 0.0 0.0 0.00 0.00 0.00 71 1009.4
20260509024645 56 13 0.0 0.0 0.00 0.00 0.00 68 1009.2
20260509023144 57 13 0.0 0.0 0.00 0.00 0.00 66 1009.1
20260509021643 59 13 0.0 0.0 0.00 0.00 0.00 61 1008.8
20260509014641 63 13 0.0 0.0 0.00 0.00 0.00 54 1008.6
20260509013140 66 13 0.0 0.0 0.00 0.00 0.00 50 1008.5
20260509011639 68 12 0.0 0.0 0.00 0.00 0.00 46 1008.3
20260509010138 70 55 0.0 1.0 0.00 0.00 0.00 44 1008.2
20260509004637 72 312 0.0 1.0 0.00 0.00 0.00 42 1008.1
20260509003136 72 20 0.0 1.0 0.00 0.00 0.00 41 1008.0
20260509001635 73 43 0.0 1.0 0.00 0.00 0.00 41 1007.7
20260509000134 74 15 0.0 1.0 0.00 0.00 0.00 39 1007.5
20260508233133 75 63 0.0 1.0 0.00 0.00 0.00 39 1007.2
20260508231632 76 352 0.0 6.0 0.00 0.00 0.00 38 1007.2
20260508224629 77 39 1.0 4.0 0.00 0.00 0.00 36 1006.9
20260508223129 77 71 4.0 7.0 0.00 0.00 0.00 38 1006.8
20260508220127 78 253 1.0 6.0 0.00 0.00 0.00 42 1006.7
20260508214626 79 18 0.0 1.0 0.00 0.00 0.00 39 1006.5
20260508211624 79 313 0.0 6.0 0.00 0.00 0.00 38 1006.4
20260508210123 79 354 0.0 1.0 0.00 0.00 0.00 40 1006.6
20260508204622 76 39 0.0 1.0 0.00 0.00 0.00 43 1006.8